Orbital Elements at Epoch 2459000.5 (2020-May-31.0) TDB
Reference: JPL 22 (heliocentric ecliptic J2000)
Element | Value | Uncertainty (1-sigma) | Units |
e | .2014175509130271 | 3.539e-08 | |
a | 2.290368394259706 | 7.4613e-09 | au |
q | 1.829048001599313 | 8.3232e-08 | au |
i | 4.901635409892693 | 3.6526e-06 | deg |
node | 89.16680009215121 | 4.1403e-05 | deg |
peri | 264.2467631342269 | 4.2286e-05 | deg |
M | 22.47703217310017 | 9.0117e-06 | deg |
tp | 2458921.451632310250 (2020-Mar-12.95163231) | 3.1581e-05 | TDB |
period | 1266.066273747966 3.47 | 6.1867e-06 1.694e-08 | d yr |
n | .284345304400443 | 1.3895e-09 | deg/d |
Q | 2.751688786920098 | 8.9642e-09 | au |
|
| | Orbit Determination Parameters
Additional Information
|